Location: Unspecified
(0.0000°N, 0.0000°E)
Time: 08:01:02
(UTC+00:00)

deb Midas III - Pass Details

Date: 13 March 2026
Orbit: 3314 x 3545 km, 91.1° (Epoch: 18 April)

Event Time Altitude Azimuth Distance (km) Brightness Sun altitude
Rises 00:03:42 0° 147° (SSE) 7,607 ? -86.7°
Reaches altitude 10° 00:09:27 10° 135° (SE) 6,564 ? -87.0°
Enters shadow 00:11:25 14° 130° (SE) 6,243 ? -87.0°
Exits shadow 00:36:21 12° 32° (NNE) 6,296 ? -82.7°
Drops below altitude 10° 00:37:09 10° 30° (NNE) 6,431 ? -82.5°
Sets 00:42:26 0° 20° (NNE) 7,428 ? -81.3°
